パンスターズ彗星

C/2015 H2 ( PanSTARRS )

English version
Home page
Updated on March 6, 2020

---------------------------------------------------------------------

・ プロフィール

発見日 2015年4月24日
発見光度 19.7等
発見者 Pan-STARRS 1 telescope (Haleakala)

・ 写真集

・ 軌道要素

Epoch 2016 Sept. 9.0 TT = JDT 2457640.5
T 2016 Sept. 13.24892 TT                                Williams
q   4.9672220            (2000.0)            P               Q
z  -0.0006684      Peri.  287.90526     +0.17535657     +0.98040505
 +/-0.0000007      Node   350.69181     -0.55230790     +0.02249529
e   1.0033203      Incl.   33.70511     -0.81498838     +0.19570358
From 175 observations 2014 May 19-2019 Aug. 12, mean residual 0".6.

・ 光度変化

        m1 = 6.8 + 5 logΔ + 10.0 log r(t - 250)

---------------------------------------------------------------------

軌道要素はM.P.E.C. 2019-Q135に掲載されたものです。
光度グラフはComet for Windowsで作成したものです。

---------------------------------------------------------------------

Copyright(C) Seiichi Yoshida (comet@aerith.net). All rights reserved.